Location: Austin
(30.3000°N, 97.7500°W)
Time: 01:04:46
(UTC-05:00)

MetOp-B - Pass Details

Date: 15 May 2024
Orbit: 819 x 821 km, 98.6° (Epoch: 29 May)

Event Time Altitude Azimuth Distance (km) Brightness Sun altitude
Exits shadow 22:40:17 66° 199° (SSW) 894 4.1 -26.2°
Maximum altitude 22:40:59 77° 257° (WSW) 844 4.1 -26.3°
Drops below altitude 10° 22:46:20 10° 344° (NNW) 2,418 7.4 -27.1°
Sets 22:48:42 0° 346° (NNW) 3,353 8.2 -27.5°
